Regional Weather Roundup
Issued by NWS

Home | Current Version | Previous Version | Text Only | Print | Product List | Glossary On
Versions: 1 2 3 4 5 6 7 8 9 10 11 12 13 14 15 16 17 18 19 20 21 22 23 24 25 26 27 28 29 30 31 32 33 34 35 36 37 38 39 40 41 42 43 44 45 46 47 48 49 50
000
ASUS46 KPQR 260310
RWROR

OREGON REGIONAL WEATHER ROUNDUP
NATIONAL WEATHER SERVICE PORTLAND OR
800 PM PDT WED MAY 25 2016

NOTE: "FAIR" INDICATES FEW OR NO CLOUDS BELOW 12,000 FEET WITH
NO SIGNIFICANT WEATHER AND/OR OBSTRUCTIONS TO VISIBILITY.

ORZ001>013-260400-
NORTHWEST OREGON


CITY           SKY/WX    TMP DP  RH WIND       PRES   REMARKS
ASTORIA        CLOUDY    55  46  71 NW8       30.24R
NEWPORT        CLOUDY    55  50  82 N10       30.28R
PORTLAND       PTCLDY    62  49  62 NW10      30.18R
VANCOUVER WA   PTCLDY    62  49  62 NW10      30.17S
SCAPPOOSE      CLEAR     59  47  64 NW6       30.18R
HILLSBORO      CLOUDY    60  47  61 NW15      30.18R
AURORA         CLOUDY    62  50  64 CALM      30.18R
MCMINNVILLE    PTCLDY    59  50  72 SW8       30.20R
SALEM          PTCLDY    60  48  64 W7        30.19R
CORVALLIS        N/A     57  48  72 W10       30.21S
EUGENE         MOCLDY    62  48  60 NW10      30.20R
$$

ORZ021-028-260400-
SOUTHWEST OREGON


CITY           SKY/WX    TMP DP  RH WIND       PRES   REMARKS
NORTH BEND     CLEAR     57  52  82 N12       30.26R
BROOKINGS      CLEAR     59  51  75 VRB3      30.16R
ROSEBURG       CLOUDY    63  49  60 N13       30.19R
SEXTON SUMMIT  CLEAR     50  43  77 N9G18     30.17R
MEDFORD        PTCLDY    67  42  40 N16       30.11R
$$

ORZ014>016-041-260400-
COLUMBIA GORGE


CITY           SKY/WX    TMP DP  RH WIND       PRES   REMARKS
TROUTDALE      MOCLDY    64  49  57 MISG      30.17R
THE DALLES     CLEAR     65  45  48 W18       30.07R
$$

ORZ029>031-041-044-049-050-061>064-502-503-505>511-260400-
EASTERN OREGON


CITY           SKY/WX    TMP DP  RH WIND       PRES   REMARKS
REDMOND        CLEAR     59  41  51 NW10      30.10R
BEND           CLEAR     59  41  51 NW13      30.10R
PRINEVILLE     CLEAR     57  43  58 NW15      30.10R
KLAMATH FALLS  PTCLDY    61  36  39 NW17      30.10R
LAKEVIEW       PTCLDY    55  37  50 N6        30.13R
HERMISTON      CLEAR     68  47  46 SW16G22   29.97R
PENDLETON      CLEAR     66  42  41 W18       30.00R
JOHN DAY         N/A    N/A N/A N/A MISG        N/A
MEACHAM        PTCLDY    56  40  55 CALM      30.07R
LA GRANDE      PTCLDY    63  41  45 N7        30.02S
BAKER CITY     PTCLDY    60  42  51 N9        30.03R
BURNS          MOCLDY    56  41  57 SW7       30.06S
ROME             N/A     63  31  30 NW7       30.03R
ONTARIO        CLEAR     69  38  32 N8        29.96R
$$



USA.gov is the U.S. government's official web portal to all federal, state and local government web resources and services.